Vertical_Velocity
-2 0 0 1 1 -1 0 -2 -1 -0 1 -0 -1 -0 -3 -2 1 0 2 0 -0 -0 -0 0 -1 -0 0 -1 -1 0 -1 -0 -1 -0 -1 -2 -2 -0 -1 -1 -1 -1 -1
2 1 -1 1 1 -2 0 -0 -1 0 -0 1 -0 0 -2 -1 -1 1 1 0 -1 -0 -0 -1 -0 -2 -1 -1 -0 -1 0 -1 -0 -1 -1 0 -0 -0 -1 -1 -0 0 -1
1 1 -0 1 0 -0 -0 1 -1 -0 1 1 -0 -1 1 -0 -0 -1 0 0 1 -0 -0 0 0 -1 0 1 0 0 -1 -1 -1 0 -0 -0 -1 -1 -1 -1 -1 -2 -1
3 1 -1 -3 -0 0 -1 1 1 0 1 -0 -1 0 0 1 -1 -0 -1 -1 0 0 -1 0 -1 -0 -1 0 -0 -1 -0 -0 0 -1 -0 -2 -1 -1 -1 -1 -1 -1 -1
1 2 0 3 -1 -0 -0 -1 2 0 2 1 -2 4 1 -0 1 -1 -0 1 0 -1 1 -1 -2 -0 -0 -1 -0 0 -0 -0 -1 -2 -1 -1 -1 -1 -1 -1 -0 -1 -0
4 -0 2 2 -0 0 0 -1 1 2 0 3 0 1 6 3 -0 0 -2 -1 -0 -1 -0 0 -2 -1 -1 -2 -1 -1 -1 -0 -1 -2 -1 -0 -1 -1 -2 -1 -0 -1 -2
2 2 -1 1 2 -1 1 1 0 1 2 2 2 1 6 -0 1 1 1 -1 -1 -0 -1 -2 0 -1 -1 -0 -1 -0 -1 -0 1 1 -1 -1 -2 -1 -1 -2 -2 -1 -1
5 7 -3 2 2 2 -0 1 1 -1 1 1 1 1 4 -0 2 2 2 -0 1 1 0 -1 -1 0 -1 -1 -1 -1 -0 -0 -1 -1 -1 1 0 -0 0 -0 -1 -1 -1
2 2 -0 -0 3 2 0 1 0 1 -2 1 1 1 1 2 2 2 0 1 -0 -1 -1 0 -1 -0 0 1 0 -0 -1 -1 -1 -0 0 0 -0 -1 -0 0 -0 -1 -1
3 7 4 6 2 3 -0 3 -0 1 0 -1 -1 4 -1 1 0 2 2 -0 2 -2 -1 -1 -0 0 -1 -0 -0 -0 1 -0 -1 -0 -1 -1 -1 -1 -1 -0 -1 -0 0
8 5 8 3 2 1 1 0 4 -2 1 0 -0 -2 1 -1 0 -0 -1 -0 2 -0 -1 0 -0 1 1 -1 -1 -0 1 0 -0 0 -1 -0 -1 -2 -2 -1 -1 -1 -2
10 2 4 9 4 3 1 1 5 -1 1 2 3 1 1 0 0 -1 -1 -2 -2 1 -1 1 1 -0 -0 0 1 -0 -1 -1 -1 -0 0 0 -1 -1 -1 -1 -2 -2 -1
-33 -3 1 5 4 3 3 4 2 2 -1 1 1 2 1 2 1 -0 -1 1 -1 2 1 0 1 2 1 -0 -1 -1 -1 -0 -0 -0 -0 -1 -1 -0 -1 -1 -1 -1 -1
-3 -23 4 -5 1 4 2 3 6 3 2 -1 -2 2 0 3 1 1 2 1 -0 1 1 0 -0 -1 2 0 -0 0 -1 -1 -0 -1 -2 -1 -1 -1 -0 -1 1 2 1
11 -16 22 4 8 2 3 2 2 5 5 6 -2 3 -1 3 2 1 2 2 1 2 1 -0 1 -1 -0 1 0 -1 1 0 -1 -1 1 0 -1 -1 -1 -1 0 0 -1
-15 -49 -4 24 4 2 -0 1 7 5 3 3 3 5 0 -1 -1 -1 2 1 1 0 2 0 0 1 -0 -1 0 -1 -1 -1 -0 -1 -0 -0 -1 -0 0 -2 -2 -1 -1
7 3 -21 -5 3 -3 8 2 -2 7 -1 2 5 4 3 3 3 2 1 2 0 2 2 -0 -0 2 -2 -1 0 -1 -0 -0 0 1 0 -0 -1 -2 -1 -2 -1 -1 -2
-9 -7 -10 4 -20 -3 -2 -2 12 4 8 8 -2 -1 4 4 3 3 2 3 2 0 3 1 1 2 2 -2 -1 -0 -1 1 1 -0 1 1 1 0 -2 1 -1 -0 -2
-2 -14 -8 -1 -18 -7 5 4 5 3 5 1 2 4 2 2 0 3 5 -1 0 2 0 3 2 1 3 2 -1 2 0 3 -0 0 -1 -2 -0 -0 -1 -3 -3 -3 -5
4 11 -1 -2 2 -9 9 -27 -14 -1 5 -4 1 2 7 3 2 -2 2 3 0 3 0 2 5 0 2 2 0 1 2 1 2 -1 -0 2 -1 -1 -1 2 1 0 2
2 3 -3 10 -4 -4 -6 4 -11 -2 9 -4 1 11 5 10 -4 -2 2 3 1 1 -1 -1 -2 -3 3 2 1 2 0 1 -1 -1 -3 1 -0 -2 -1 -3 -2 -1 0
8 7 9 7 3 12 -11 20 10 -1 -11 -13 7 0 3 -6 12 4 3 1 3 1 -1 1 0 2 3 -1 1 -3 4 2 5 1 2 4 1 0 2 -3 -2 -2 -0
-1 10 21 5 9 -3 1 -13 -8 -9 -12 2 5 -2 -5 10 -2 8 11 12 12 8 11 3 2 2 2 1 3 -4 0 -1 -4 3 2 1 1 1 3 1 -0 -2 -7
0 -8 -26 -6 -16 -24 46 3 -8 -2 14 7 -4 -8 4 4 3 6 13 17 8 8 36 6 21 12 10 4 -0 -1 0 -4 -8 -4 2 -1 -5 -3 -0 0 -0 2 3
3 2 5 13 11 24 -2 6 17 18 1 -25 32 -11 -21 -1 5 -24 -20 -1 20 -1 11 14 5 3 1 7 -0 5 3 -2 -4 -6 -7 -1 -2 -2 -4 -3 5 -0 1
-1 5 4 2 4 5 8 3 -0 20 18 8 -12 -15 7 2 -10 11 22 12 -6 -0 4 51 1 2 -6 -17 -16 -10 -7 -12 0 -0 -2 -6 -5 4 0 2 -1 0 -0
Height
3157 3158 3159 3161 3162 3163 3164 3165 3165 3166 3167 3169 3170 3172 3174 3177 3180 3182 3183 3185 3187 3188 3189 3189 3190 3190 3190 3190 3191 3190 3190 3190 3190 3190 3189 3188 3187 3187 3186 3185 3184 3184 3183
3155 3157 3158 3160 3162 3163 3164 3164 3165 3166 3167 3168 3170 3172 3175 3177 3180 3182 3184 3186 3187 3189 3190 3190 3191 3191 3191 3192 3192 3192 3192 3191 3191 3191 3190 3190 3189 3188 3187 3186 3186 3185 3184
3153 3155 3157 3158 3160 3162 3163 3164 3165 3166 3167 3168 3169 3172 3175 3177 3180 3183 3184 3186 3188 3189 3190 3191 3192 3192 3193 3193 3193 3193 3192 3192 3193 3192 3191 3191 3190 3190 3188 3188 3187 3186 3185
3152 3154 3156 3157 3159 3161 3162 3163 3164 3165 3167 3168 3170 3173 3175 3178 3180 3182 3184 3186 3188 3189 3190 3191 3192 3192 3193 3193 3193 3193 3193 3193 3193 3193 3193 3192 3192 3191 3190 3189 3188 3187 3186
3149 3152 3154 3156 3158 3160 3161 3163 3164 3165 3167 3169 3171 3174 3177 3178 3180 3182 3184 3186 3188 3189 3191 3192 3192 3193 3194 3194 3194 3195 3195 3195 3195 3195 3194 3194 3193 3192 3191 3190 3189 3188 3187
3147 3149 3152 3155 3156 3158 3160 3162 3164 3165 3167 3169 3172 3174 3177 3178 3181 3182 3184 3186 3188 3190 3191 3192 3193 3194 3195 3195 3195 3196 3196 3196 3196 3195 3195 3194 3194 3193 3192 3190 3189 3188 3187
3145 3147 3150 3154 3155 3157 3159 3161 3163 3165 3167 3169 3171 3174 3176 3179 3181 3183 3185 3187 3189 3190 3192 3193 3194 3195 3196 3196 3197 3197 3197 3197 3197 3196 3195 3195 3194 3193 3192 3191 3190 3189 3188
3143 3145 3148 3152 3154 3156 3158 3160 3162 3164 3167 3168 3171 3173 3176 3179 3181 3183 3185 3187 3189 3191 3192 3193 3195 3196 3197 3197 3197 3197 3197 3196 3196 3196 3195 3194 3193 3193 3192 3191 3190 3189 3188
3139 3142 3146 3149 3152 3154 3157 3159 3162 3164 3166 3168 3171 3173 3175 3178 3181 3183 3185 3187 3189 3191 3192 3193 3194 3195 3196 3197 3197 3197 3196 3195 3195 3195 3194 3194 3193 3193 3191 3191 3190 3188 3187
3133 3137 3142 3146 3149 3152 3155 3158 3161 3164 3166 3168 3171 3173 3175 3178 3180 3183 3185 3188 3189 3191 3193 3194 3195 3196 3196 3196 3196 3196 3195 3194 3194 3193 3193 3192 3192 3192 3191 3190 3189 3187 3186
3127 3132 3138 3143 3147 3151 3154 3157 3160 3163 3165 3168 3170 3173 3176 3178 3180 3183 3185 3187 3189 3191 3193 3194 3195 3195 3196 3196 3196 3195 3194 3194 3193 3192 3192 3191 3191 3190 3190 3188 3187 3185 3184
3122 3129 3134 3141 3145 3149 3152 3156 3159 3162 3164 3167 3170 3173 3176 3178 3181 3183 3185 3187 3189 3190 3192 3193 3194 3194 3194 3194 3194 3194 3193 3193 3192 3191 3191 3190 3190 3189 3188 3187 3185 3184 3182
3124 3124 3131 3136 3142 3146 3150 3154 3157 3161 3163 3166 3169 3172 3175 3178 3180 3182 3184 3186 3188 3189 3191 3191 3192 3192 3193 3193 3193 3193 3192 3191 3191 3190 3190 3189 3189 3188 3187 3185 3184 3182 3180
3125 3124 3126 3132 3137 3142 3147 3151 3155 3160 3164 3166 3168 3171 3174 3177 3179 3182 3183 3185 3187 3188 3189 3190 3190 3191 3191 3191 3191 3191 3190 3190 3189 3188 3188 3187 3186 3185 3184 3183 3181 3180 3177
3117 3123 3123 3130 3133 3137 3141 3148 3153 3157 3161 3165 3168 3170 3173 3175 3178 3180 3182 3183 3185 3186 3187 3188 3188 3188 3189 3189 3189 3188 3188 3187 3186 3185 3185 3184 3183 3182 3181 3179 3178 3177 3174
3117 3119 3120 3125 3132 3136 3140 3144 3151 3155 3158 3161 3165 3169 3172 3174 3176 3178 3180 3181 3183 3184 3185 3185 3186 3186 3186 3186 3186 3186 3185 3184 3184 3183 3182 3181 3180 3179 3178 3176 3175 3173 3172
3115 3115 3119 3122 3128 3133 3138 3142 3147 3152 3155 3157 3162 3165 3168 3171 3174 3176 3177 3179 3179 3180 3182 3183 3183 3183 3183 3183 3183 3183 3182 3182 3181 3180 3179 3178 3176 3176 3175 3173 3172 3170 3168
3108 3104 3107 3114 3123 3127 3133 3139 3142 3146 3151 3155 3159 3161 3164 3167 3170 3172 3174 3175 3175 3177 3178 3179 3179 3180 3179 3180 3179 3179 3179 3179 3178 3177 3176 3175 3173 3172 3170 3169 3167 3166 3164
3106 3106 3105 3115 3117 3126 3131 3135 3139 3141 3147 3149 3153 3157 3160 3162 3165 3167 3169 3170 3170 3172 3173 3173 3174 3175 3175 3176 3176 3176 3176 3176 3175 3174 3172 3171 3169 3168 3166 3164 3163 3161 3159
3105 3108 3110 3114 3116 3123 3127 3131 3134 3138 3142 3145 3148 3150 3154 3157 3159 3161 3163 3164 3165 3166 3167 3168 3169 3170 3170 3170 3171 3172 3172 3171 3170 3169 3168 3167 3165 3164 3162 3160 3159 3157 3155
3100 3104 3108 3111 3113 3117 3123 3126 3130 3133 3138 3141 3143 3145 3148 3151 3153 3155 3156 3157 3159 3160 3162 3163 3163 3164 3165 3165 3166 3166 3167 3166 3166 3165 3164 3163 3161 3159 3157 3156 3154 3153 3151
3092 3096 3102 3107 3108 3110 3116 3118 3118 3125 3129 3134 3140 3141 3143 3145 3148 3150 3151 3151 3152 3153 3155 3157 3158 3158 3159 3160 3160 3160 3161 3162 3161 3161 3160 3159 3157 3154 3152 3151 3150 3148 3146
3087 3087 3095 3102 3108 3108 3111 3113 3115 3118 3123 3124 3130 3132 3136 3137 3139 3140 3141 3143 3145 3148 3149 3150 3151 3153 3153 3153 3153 3154 3154 3155 3154 3155 3154 3152 3151 3148 3147 3145 3143 3141 3140
3086 3090 3093 3097 3098 3103 3106 3111 3112 3113 3115 3117 3121 3126 3129 3129 3130 3131 3134 3137 3139 3140 3138 3140 3142 3146 3146 3147 3148 3148 3147 3147 3146 3146 3147 3145 3144 3142 3140 3138 3137 3135 3132
3087 3091 3093 3094 3098 3101 3104 3107 3105 3108 3111 3105 3110 3117 3115 3118 3124 3125 3127 3129 3131 3133 3130 3132 3134 3136 3137 3141 3143 3143 3142 3141 3142 3140 3139 3139 3137 3134 3133 3132 3130 3127 3125
3087 3090 3092 3096 3098 3100 3101 3103 3105 3106 3107 3108 3108 3111 3114 3115 3115 3117 3122 3124 3126 3126 3128 3125 3128 3130 3131 3134 3136 3137 3136 3137 3135 3133 3130 3132 3131 3129 3126 3123 3122 3120 3118